QPF
0.01 0.01 0.01 0.01 0.01 0.01 0.01 0.01 0.01 0.01 0.01 0.01 0.02 0.04 0.04 0.04 0.03 0.02 0.02 0.03 0.03 0.04 0.04 0.03 0.02 0.02 0.03 0.04 0.05 0.06 0.06 0.05 0.04 0.04 0.04 0.03 0.02 0.02 0.01 0.01 0.02 0.01 0.01 0.01
0.01 0.01 0.01 0.01 0.01 0.00 0.00 0.00 0.01 0.01 0.00 0.01 0.02 0.03 0.03 0.02 0.02 0.02 0.02 0.02 0.03 0.04 0.03 0.02 0.01 0.01 0.02 0.03 0.04 0.05 0.05 0.05 0.05 0.05 0.04 0.02 0.01 0.01 0.01 0.01 0.02 0.02 0.02 0.02
0.01 0.01 0.01 0.01 0.01 0.01 0.01 0.00 0.01 0.00 0.00 0.01 0.01 0.02 0.02 0.02 0.02 0.02 0.02 0.02 0.02 0.03 0.04 0.03 0.02 0.02 0.02 0.02 0.03 0.04 0.04 0.05 0.05 0.05 0.05 0.03 0.02 0.02 0.01 0.02 0.02 0.02 0.02 0.03
0.01 0.01 0.01 0.02 0.02 0.02 0.01 0.01 0.01 0.01 0.01 0.01 0.01 0.02 0.02 0.01 0.01 0.01 0.02 0.02 0.02 0.02 0.03 0.03 0.03 0.03 0.03 0.03 0.03 0.04 0.04 0.04 0.05 0.04 0.04 0.03 0.02 0.02 0.02 0.02 0.02 0.02 0.03 0.03
0.01 0.01 0.01 0.01 0.02 0.02 0.01 0.01 0.01 0.01 0.00 0.01 0.01 0.01 0.01 0.01 0.01 0.01 0.02 0.01 0.01 0.02 0.03 0.03 0.03 0.04 0.04 0.03 0.02 0.03 0.03 0.03 0.03 0.04 0.04 0.04 0.04 0.04 0.04 0.04 0.03 0.03 0.03 0.03
0.03 0.02 0.01 0.02 0.02 0.02 0.02 0.02 0.01 0.00 0.00 0.01 0.01 0.01 0.01 0.01 0.01 0.02 0.03 0.02 0.02 0.03 0.03 0.03 0.02 0.03 0.03 0.03 0.03 0.02 0.03 0.03 0.03 0.04 0.05 0.04 0.04 0.06 0.07 0.07 0.07 0.06 0.04 0.03
0.02 0.02 0.01 0.02 0.02 0.02 0.02 0.01 0.01 0.01 0.01 0.01 0.01 0.01 0.01 0.01 0.01 0.02 0.04 0.03 0.02 0.02 0.03 0.02 0.02 0.02 0.03 0.03 0.03 0.03 0.03 0.04 0.05 0.05 0.05 0.04 0.04 0.04 0.05 0.06 0.07 0.05 0.04 0.03
0.03 0.03 0.02 0.02 0.02 0.04 0.02 0.01 0.01 0.01 0.01 0.02 0.02 0.01 0.02 0.02 0.01 0.01 0.04 0.04 0.02 0.02 0.02 0.02 0.02 0.02 0.03 0.03 0.03 0.04 0.04 0.04 0.05 0.05 0.06 0.05 0.04 0.03 0.03 0.04 0.05 0.04 0.03 0.01
0.04 0.02 0.02 0.02 0.02 0.02 0.02 0.01 0.01 0.02 0.02 0.02 0.02 0.02 0.02 0.02 0.01 0.01 0.03 0.03 0.02 0.02 0.02 0.03 0.03 0.04 0.04 0.04 0.04 0.03 0.04 0.04 0.05 0.08 0.08 0.09 0.08 0.05 0.03 0.03 0.03 0.03 0.02 0.02
0.03 0.02 0.02 0.02 0.02 0.02 0.02 0.01 0.01 0.02 0.02 0.02 0.02 0.02 0.02 0.02 0.01 0.02 0.02 0.03 0.02 0.02 0.02 0.02 0.04 0.05 0.05 0.04 0.04 0.03 0.03 0.03 0.04 0.06 0.07 0.06 0.05 0.04 0.02 0.02 0.01 0.01 0.01 0.01
0.04 0.02 0.02 0.02 0.02 0.02 0.02 0.01 0.01 0.02 0.01 0.02 0.02 0.02 0.02 0.02 0.02 0.02 0.02 0.02 0.02 0.02 0.03 0.04 0.05 0.06 0.06 0.06 0.05 0.04 0.03 0.02 0.03 0.03 0.03 0.02 0.02 0.02 0.02 0.02 0.01 0.01 0.01 0.01
0.03 0.02 0.02 0.02 0.02 0.01 0.01 0.02 0.01 0.02 0.01 0.01 0.02 0.02 0.02 0.02 0.03 0.03 0.03 0.03 0.02 0.03 0.05 0.05 0.07 0.08 0.07 0.07 0.06 0.04 0.03 0.02 0.02 0.02 0.02 0.02 0.01 0.01 0.01 0.01 0.01 0.01 0.01 0.01
0.01 0.02 0.02 0.02 0.01 0.01 0.01 0.01 0.01 0.01 0.01 0.01 0.01 0.01 0.01 0.01 0.04 0.04 0.03 0.03 0.04 0.05 0.09 0.07 0.07 0.06 0.06 0.06 0.05 0.04 0.02 0.02 0.02 0.02 0.02 0.02 0.01 0.00 0.00 0.00 0.00 0.01 0.01 0.01
0.01 0.01 0.01 0.01 0.01 0.01 0.01 0.01 0.01 0.01 0.01 0.01 0.01 0.01 0.01 0.02 0.03 0.04 0.04 0.04 0.05 0.05 0.06 0.06 0.05 0.05 0.04 0.04 0.05 0.04 0.04 0.03 0.02 0.01 0.02 0.01 0.01 0.00 0.00 0.00 0.00 0.00 0.00 0.01
0.01 0.01 0.01 0.01 0.01 0.01 0.01 0.01 0.01 0.01 0.01 0.01 0.01 0.01 0.01 0.01 0.02 0.03 0.03 0.03 0.03 0.03 0.03 0.03 0.03 0.03 0.02 0.02 0.02 0.03 0.04 0.03 0.02 0.01 0.01 0.01 0.01 0.01 0.00 0.00 0.00 0.00 0.00 0.00
0.01 0.01 0.01 0.01 0.02 0.02 0.01 0.01 0.01 0.02 0.02 0.03 0.02 0.02 0.01 0.01 0.01 0.02 0.02 0.01 0.01 0.01 0.01 0.02 0.01 0.01 0.01 0.01 0.01 0.02 0.02 0.02 0.01 0.01 0.01 0.01 0.01 0.01 0.00 0.00 0.00 0.00 0.00 0.00
0.01 0.01 0.01 0.02 0.01 0.01 0.01 0.01 0.01 0.02 0.02 0.03 0.03 0.02 0.01 0.01 0.01 0.01 0.02 0.01 0.01 0.00 0.00 0.01 0.00 0.00 0.00 0.00 0.00 0.01 0.01 0.01 0.01 0.01 0.01 0.01 0.01 0.00 0.00 0.00 0.00 0.00 0.00 0.00
0.01 0.01 0.01 0.01 0.01 0.01 0.00 0.01 0.01 0.01 0.01 0.01 0.01 0.01 0.01 0.01 0.01 0.01 0.01 0.01 0.01 0.00 0.00 0.00 0.00 0.00 0.00 0.00 0.00 0.01 0.01 0.00 0.00 0.01 0.01 0.01 0.01 0.00 0.00 0.00 0.00 0.00 0.00 0.00
0.01 0.01 0.01 0.01 0.01 0.01 0.01 0.00 0.00 0.01 0.01 0.01 0.01 0.01 0.01 0.01 0.01 0.01 0.01 0.01 0.01 0.00 0.00 0.00 0.00 0.00 0.00 0.00 0.00 0.00 0.00 0.00 0.00 0.00 0.00 0.01 0.00 0.00 0.00 0.00 0.00 0.00 0.00 0.00
0.01 0.01 0.01 0.01 0.01 0.01 0.00 0.00 0.00 0.00 0.01 0.01 0.01 0.01 0.01 0.02 0.02 0.01 0.01 0.01 0.00 0.00 0.00 0.01 0.01 0.00 0.00 0.00 0.00 0.00 0.00 0.00 0.00 0.00 0.00 0.00 0.00 0.00 0.00 0.00 0.00 0.00 0.00 0.00
0.01 0.01 0.01 0.01 0.01 0.01 0.01 0.00 0.00 0.00 0.01 0.01 0.01 0.01 0.02 0.04 0.03 0.01 0.01 0.00 0.00 0.00 0.00 0.00 0.00 0.00 0.00 0.00 0.00 0.00 0.00 0.00 0.00 0.00 0.00 0.00 0.00 0.00 0.00 0.00 0.00 0.00 0.00 0.00
0.01 0.01 0.01 0.01 0.01 0.01 0.01 0.01 0.00 0.00 0.00 0.01 0.02 0.01 0.02 0.03 0.01 0.01 0.00 0.00 0.00 0.00 0.00 0.00 0.00 0.00 0.00 0.00 0.00 0.00 0.00 0.00 0.00 0.00 0.00 0.00 0.00 0.00 0.00 0.00 0.00 0.00 0.00 0.00
0.01 0.01 0.01 0.01 0.01 0.01 0.01 0.00 0.00 0.00 0.01 0.01 0.01 0.02 0.03 0.02 0.01 0.01 0.01 0.00 0.00 0.00 0.00 0.00 0.00 0.00 0.00 0.00 0.00 0.00 0.00 0.00 0.00 0.00 0.00 0.00 0.00 0.00 0.00 0.00 0.00 0.00 0.00 0.00
0.01 0.00 0.00 0.00 0.00 0.01 0.01 0.00 0.00 0.00 0.00 0.01 0.01 0.02 0.02 0.02 0.01 0.01 0.01 0.01 0.00 0.00 0.00 0.00 0.00 0.00 0.00 0.00 0.00 0.00 0.00 0.00 0.00 0.00 0.00 0.00 0.00 0.00 0.00 0.00 0.00 0.00 0.00 0.00
0.00 0.00 0.00 0.00 0.00 0.01 0.01 0.00 0.01 0.01 0.00 0.01 0.01 0.01 0.01 0.02 0.01 0.01 0.01 0.00 0.00 0.00 0.00 0.00 0.00 0.00 0.00 0.00 0.00 0.00 0.00 0.00 0.00 0.00 0.00 0.00 0.01 0.01 0.00 0.00 0.00 0.00 0.00 0.01
0.00 0.00 0.00 0.00 0.00 0.00 0.00 0.01 0.01 0.01 0.00 0.00 0.00 0.00 0.00 0.01 0.01 0.01 0.01 0.00 0.01 0.00 0.00 0.00 0.00 0.00 0.00 0.00 0.00 0.00 0.00 0.00 0.00 0.01 0.01 0.01 0.01 0.01 0.01 0.01 0.01 0.01 0.01 0.01
0.00 0.00 0.00 0.00 0.00 0.00 0.00 0.00 0.00 0.00 0.00 0.00 0.00 0.00 0.00 0.00 0.01 0.01 0.01 0.00 0.00 0.00 0.00 0.00 0.00 0.00 0.00 0.00 0.00 0.00 0.00 0.00 0.01 0.01 0.01 0.01 0.01 0.01 0.01 0.01 0.01 0.02 0.02 0.01
MSLP
1012.40 1011.82 1011.36 1010.99 1010.71 1010.48 1010.28 1010.06 1009.82 1009.56 1009.31 1009.11 1009.01 1009.06 1009.29 1009.71 1010.31 1011.06 1011.90 1012.76 1013.59 1014.31 1014.92 1015.38 1015.70 1015.92 1016.05 1016.14 1016.21 1016.27 1016.34 1016.41 1016.48 1016.54 1016.58 1016.59 1016.59 1016.56 1016.51 1016.44 1016.35 1016.22 1016.05 1015.82
1012.38 1011.74 1011.16 1010.64 1010.18 1009.77 1009.41 1009.09 1008.82 1008.60 1008.47 1008.44 1008.54 1008.79 1009.19 1009.75 1010.42 1011.18 1011.98 1012.76 1013.49 1014.12 1014.64 1015.05 1015.36 1015.58 1015.74 1015.86 1015.96 1016.05 1016.13 1016.20 1016.26 1016.29 1016.30 1016.29 1016.26 1016.21 1016.15 1016.06 1015.95 1015.80 1015.59 1015.33
1011.93 1011.27 1010.63 1010.01 1009.44 1008.93 1008.48 1008.12 1007.87 1007.73 1007.72 1007.87 1008.16 1008.60 1009.16 1009.82 1010.55 1011.31 1012.05 1012.75 1013.37 1013.90 1014.34 1014.69 1014.97 1015.19 1015.38 1015.54 1015.68 1015.80 1015.91 1015.98 1016.03 1016.05 1016.04 1016.01 1015.95 1015.88 1015.80 1015.69 1015.55 1015.36 1015.12 1014.82
1011.15 1010.49 1009.82 1009.17 1008.55 1007.99 1007.52 1007.17 1006.97 1006.93 1007.06 1007.37 1007.84 1008.44 1009.14 1009.90 1010.67 1011.41 1012.10 1012.72 1013.24 1013.68 1014.04 1014.34 1014.60 1014.83 1015.04 1015.24 1015.42 1015.58 1015.70 1015.79 1015.84 1015.85 1015.82 1015.76 1015.68 1015.59 1015.47 1015.33 1015.16 1014.93 1014.65 1014.31
1010.24 1009.57 1008.90 1008.23 1007.59 1007.03 1006.58 1006.27 1006.14 1006.20 1006.47 1006.93 1007.55 1008.29 1009.10 1009.93 1010.73 1011.47 1012.12 1012.67 1013.12 1013.49 1013.79 1014.05 1014.30 1014.53 1014.77 1014.99 1015.21 1015.40 1015.54 1015.64 1015.69 1015.69 1015.64 1015.56 1015.45 1015.32 1015.17 1014.99 1014.78 1014.51 1014.19 1013.81
1009.42 1008.73 1008.03 1007.35 1006.72 1006.16 1005.74 1005.48 1005.42 1005.58 1005.96 1006.53 1007.27 1008.11 1009.01 1009.90 1010.73 1011.47 1012.10 1012.61 1013.01 1013.34 1013.61 1013.85 1014.09 1014.33 1014.58 1014.83 1015.07 1015.27 1015.43 1015.53 1015.57 1015.56 1015.49 1015.38 1015.24 1015.08 1014.89 1014.67 1014.41 1014.10 1013.73 1013.30
1008.86 1008.11 1007.38 1006.68 1006.04 1005.49 1005.09 1004.88 1004.87 1005.10 1005.56 1006.21 1007.03 1007.94 1008.90 1009.83 1010.68 1011.43 1012.05 1012.55 1012.94 1013.24 1013.50 1013.74 1013.97 1014.22 1014.48 1014.74 1014.99 1015.20 1015.35 1015.45 1015.47 1015.44 1015.34 1015.21 1015.03 1014.83 1014.60 1014.34 1014.03 1013.68 1013.26 1012.79
1008.64 1007.82 1007.03 1006.30 1005.64 1005.10 1004.71 1004.52 1004.55 1004.81 1005.31 1006.00 1006.86 1007.81 1008.79 1009.74 1010.62 1011.38 1012.00 1012.50 1012.89 1013.21 1013.47 1013.71 1013.95 1014.20 1014.46 1014.72 1014.95 1015.15 1015.29 1015.36 1015.37 1015.30 1015.18 1015.01 1014.81 1014.57 1014.30 1013.99 1013.64 1013.24 1012.78 1012.26
1008.72 1007.82 1006.98 1006.21 1005.54 1004.99 1004.61 1004.42 1004.46 1004.74 1005.24 1005.94 1006.80 1007.75 1008.73 1009.68 1010.56 1011.33 1011.97 1012.48 1012.89 1013.22 1013.49 1013.74 1013.98 1014.23 1014.48 1014.72 1014.93 1015.10 1015.21 1015.26 1015.23 1015.14 1014.99 1014.79 1014.55 1014.28 1013.97 1013.62 1013.22 1012.77 1012.27 1011.72
1008.96 1008.01 1007.14 1006.35 1005.67 1005.12 1004.75 1004.57 1004.61 1004.87 1005.36 1006.04 1006.87 1007.79 1008.75 1009.68 1010.55 1011.32 1011.97 1012.50 1012.92 1013.26 1013.55 1013.81 1014.05 1014.28 1014.51 1014.72 1014.90 1015.03 1015.11 1015.12 1015.06 1014.94 1014.76 1014.53 1014.26 1013.95 1013.60 1013.20 1012.77 1012.28 1011.74 1011.15
1009.16 1008.20 1007.33 1006.56 1005.91 1005.39 1005.04 1004.88 1004.92 1005.18 1005.63 1006.28 1007.06 1007.94 1008.85 1009.75 1010.59 1011.35 1012.00 1012.53 1012.97 1013.33 1013.62 1013.87 1014.11 1014.32 1014.51 1014.69 1014.83 1014.92 1014.96 1014.94 1014.85 1014.70 1014.49 1014.23 1013.93 1013.58 1013.18 1012.75 1012.27 1011.74 1011.16 1010.55
1009.11 1008.21 1007.41 1006.71 1006.13 1005.68 1005.38 1005.26 1005.32 1005.57 1006.01 1006.61 1007.34 1008.17 1009.03 1009.88 1010.69 1011.42 1012.05 1012.58 1013.02 1013.38 1013.67 1013.91 1014.12 1014.31 1014.47 1014.60 1014.70 1014.76 1014.76 1014.71 1014.59 1014.42 1014.18 1013.89 1013.55 1013.16 1012.73 1012.24 1011.71 1011.14 1010.53 1009.89
1008.70 1007.92 1007.25 1006.67 1006.20 1005.86 1005.65 1005.60 1005.70 1005.97 1006.40 1006.98 1007.67 1008.44 1009.24 1010.04 1010.81 1011.50 1012.11 1012.63 1013.05 1013.39 1013.67 1013.90 1014.08 1014.23 1014.36 1014.45 1014.51 1014.53 1014.50 1014.42 1014.28 1014.08 1013.82 1013.50 1013.13 1012.69 1012.21 1011.68 1011.10 1010.48 1009.83 1009.17
1007.91 1007.31 1006.80 1006.39 1006.09 1005.88 1005.80 1005.84 1006.01 1006.32 1006.76 1007.32 1007.98 1008.71 1009.46 1010.21 1010.92 1011.58 1012.15 1012.64 1013.04 1013.36 1013.61 1013.80 1013.95 1014.07 1014.16 1014.21 1014.24 1014.23 1014.17 1014.07 1013.91 1013.69 1013.41 1013.06 1012.65 1012.17 1011.64 1011.05 1010.42 1009.76 1009.08 1008.40
1006.83 1006.43 1006.12 1005.90 1005.78 1005.74 1005.79 1005.95 1006.21 1006.58 1007.05 1007.61 1008.25 1008.95 1009.66 1010.36 1011.02 1011.63 1012.16 1012.61 1012.97 1013.26 1013.47 1013.63 1013.74 1013.82 1013.87 1013.90 1013.89 1013.85 1013.78 1013.66 1013.48 1013.24 1012.94 1012.56 1012.11 1011.59 1011.01 1010.37 1009.70 1009.00 1008.29 1007.60
1005.62 1005.42 1005.31 1005.28 1005.33 1005.46 1005.66 1005.94 1006.29 1006.73 1007.25 1007.83 1008.47 1009.14 1009.81 1010.47 1011.09 1011.64 1012.13 1012.53 1012.85 1013.09 1013.26 1013.38 1013.45 1013.49 1013.51 1013.50 1013.47 1013.41 1013.32 1013.18 1012.99 1012.74 1012.41 1012.01 1011.53 1010.97 1010.35 1009.67 1008.96 1008.23 1007.51 1006.82
1004.45 1004.43 1004.50 1004.64 1004.85 1005.12 1005.45 1005.84 1006.30 1006.81 1007.37 1007.98 1008.62 1009.28 1009.92 1010.54 1011.11 1011.62 1012.05 1012.40 1012.67 1012.86 1012.99 1013.06 1013.10 1013.10 1013.08 1013.05 1013.00 1012.92 1012.82 1012.67 1012.47 1012.21 1011.86 1011.44 1010.94 1010.36 1009.71 1009.01 1008.27 1007.53 1006.81 1006.14
1003.48 1003.59 1003.79 1004.05 1004.39 1004.78 1005.22 1005.71 1006.25 1006.83 1007.44 1008.07 1008.72 1009.37 1009.99 1010.57 1011.10 1011.55 1011.93 1012.23 1012.44 1012.59 1012.67 1012.70 1012.70 1012.67 1012.63 1012.57 1012.50 1012.42 1012.30 1012.15 1011.95 1011.68 1011.34 1010.91 1010.40 1009.81 1009.15 1008.44 1007.70 1006.97 1006.27 1005.63
1002.78 1002.97 1003.25 1003.60 1004.02 1004.49 1005.01 1005.58 1006.18 1006.82 1007.47 1008.13 1008.78 1009.42 1010.02 1010.56 1011.04 1011.45 1011.77 1012.02 1012.18 1012.28 1012.32 1012.32 1012.29 1012.24 1012.18 1012.11 1012.04 1011.95 1011.83 1011.68 1011.49 1011.22 1010.89 1010.47 1009.96 1009.38 1008.74 1008.05 1007.34 1006.63 1005.97 1005.37
1002.36 1002.58 1002.89 1003.28 1003.74 1004.26 1004.84 1005.46 1006.11 1006.79 1007.47 1008.15 1008.81 1009.43 1010.00 1010.51 1010.95 1011.31 1011.58 1011.78 1011.90 1011.96 1011.97 1011.95 1011.90 1011.84 1011.78 1011.71 1011.64 1011.55 1011.45 1011.32 1011.13 1010.89 1010.57 1010.17 1009.70 1009.15 1008.54 1007.89 1007.22 1006.57 1005.95 1005.41
1002.14 1002.35 1002.66 1003.06 1003.54 1004.09 1004.70 1005.35 1006.04 1006.74 1007.45 1008.14 1008.79 1009.40 1009.94 1010.41 1010.81 1011.12 1011.35 1011.50 1011.59 1011.62 1011.62 1011.59 1011.54 1011.49 1011.44 1011.39 1011.34 1011.28 1011.20 1011.09 1010.93 1010.71 1010.43 1010.08 1009.64 1009.15 1008.59 1008.00 1007.39 1006.79 1006.24 1005.75
1002.03 1002.21 1002.50 1002.89 1003.38 1003.94 1004.57 1005.25 1005.96 1006.69 1007.40 1008.09 1008.73 1009.31 1009.83 1010.26 1010.61 1010.88 1011.07 1011.20 1011.26 1011.29 1011.29 1011.27 1011.25 1011.22 1011.20 1011.19 1011.17 1011.14 1011.10 1011.02 1010.90 1010.72 1010.49 1010.18 1009.80 1009.37 1008.88 1008.35 1007.82 1007.29 1006.79 1006.35
1001.95 1002.10 1002.37 1002.75 1003.24 1003.82 1004.46 1005.16 1005.89 1006.62 1007.33 1008.01 1008.63 1009.19 1009.66 1010.05 1010.36 1010.59 1010.76 1010.87 1010.93 1010.97 1010.99 1011.00 1011.01 1011.04 1011.07 1011.10 1011.13 1011.15 1011.15 1011.11 1011.04 1010.91 1010.72 1010.47 1010.15 1009.78 1009.36 1008.91 1008.45 1007.98 1007.55 1007.15
1001.83 1001.97 1002.24 1002.62 1003.12 1003.71 1004.38 1005.09 1005.82 1006.55 1007.26 1007.92 1008.51 1009.02 1009.46 1009.81 1010.08 1010.28 1010.43 1010.54 1010.61 1010.67 1010.73 1010.79 1010.86 1010.94 1011.03 1011.13 1011.21 1011.29 1011.33 1011.35 1011.32 1011.23 1011.09 1010.89 1010.64 1010.33 1009.98 1009.60 1009.20 1008.80 1008.42 1008.07
1001.67 1001.82 1002.11 1002.51 1003.03 1003.65 1004.33 1005.05 1005.78 1006.51 1007.19 1007.82 1008.37 1008.84 1009.23 1009.55 1009.79 1009.97 1010.11 1010.22 1010.32 1010.42 1010.53 1010.65 1010.79 1010.94 1011.10 1011.25 1011.40 1011.53 1011.62 1011.68 1011.69 1011.65 1011.55 1011.40 1011.20 1010.95 1010.66 1010.34 1010.00 1009.66 1009.32 1009.00
1001.49 1001.69 1002.01 1002.45 1003.01 1003.65 1004.34 1005.07 1005.79 1006.50 1007.15 1007.74 1008.25 1008.67 1009.02 1009.29 1009.51 1009.68 1009.82 1009.96 1010.09 1010.24 1010.40 1010.59 1010.80 1011.02 1011.24 1011.46 1011.67 1011.84 1011.98 1012.08 1012.12 1012.11 1012.05 1011.94 1011.78 1011.57 1011.33 1011.06 1010.78 1010.48 1010.19 1009.91
1001.33 1001.59 1001.97 1002.46 1003.05 1003.72 1004.42 1005.15 1005.86 1006.53 1007.14 1007.68 1008.14 1008.52 1008.83 1009.07 1009.27 1009.44 1009.60 1009.76 1009.93 1010.13 1010.36 1010.61 1010.88 1011.17 1011.46 1011.73 1011.98 1012.19 1012.36 1012.49 1012.56 1012.57 1012.54 1012.45 1012.32 1012.15 1011.95 1011.73 1011.49 1011.23 1010.98 1010.73
Thickness
5658 5666 5668 5668 5670 5669 5662 5658 5652 5660 5662 5670 5673 5673 5673 5672 5669 5666 5664 5661 5659 5656 5654 5653 5651 5649 5647 5644 5641 5638 5634 5631 5629 5626 5623 5620 5617 5613 5609 5605 5602 5599 5595 5593
5653 5664 5664 5663 5668 5668 5667 5664 5660 5661 5662 5671 5671 5670 5668 5666 5665 5662 5660 5658 5656 5654 5652 5650 5647 5645 5643 5641 5638 5635 5632 5629 5626 5623 5620 5618 5615 5610 5606 5602 5599 5596 5593 5590
5638 5652 5656 5651 5664 5666 5665 5666 5662 5656 5661 5666 5665 5665 5664 5663 5662 5660 5659 5656 5654 5651 5649 5646 5643 5642 5639 5637 5634 5631 5628 5626 5624 5620 5618 5616 5613 5608 5603 5599 5596 5594 5591 5587
5629 5640 5637 5654 5670 5670 5665 5665 5665 5663 5663 5663 5662 5662 5662 5662 5659 5657 5655 5653 5651 5648 5645 5642 5640 5638 5635 5632 5630 5627 5624 5623 5621 5618 5614 5612 5609 5605 5601 5597 5594 5591 5588 5585
5621 5626 5637 5656 5665 5665 5659 5659 5665 5661 5661 5660 5659 5659 5659 5660 5658 5655 5653 5651 5648 5645 5641 5638 5635 5633 5630 5628 5625 5623 5621 5620 5618 5615 5611 5608 5605 5602 5598 5595 5592 5589 5586 5583
5619 5623 5627 5647 5664 5669 5662 5652 5662 5659 5656 5654 5654 5647 5650 5656 5654 5651 5649 5646 5643 5640 5637 5634 5631 5628 5625 5623 5621 5619 5619 5617 5615 5612 5609 5606 5603 5599 5596 5592 5590 5587 5585 5582
5616 5618 5630 5651 5661 5663 5644 5646 5659 5657 5654 5650 5648 5647 5650 5651 5648 5647 5645 5642 5639 5636 5633 5630 5627 5624 5621 5619 5617 5618 5617 5614 5612 5610 5606 5603 5600 5597 5593 5591 5588 5585 5583 5581
5613 5614 5626 5651 5654 5647 5646 5652 5654 5653 5652 5649 5647 5648 5647 5645 5644 5642 5640 5637 5635 5631 5628 5626 5624 5621 5619 5616 5616 5616 5614 5612 5609 5607 5604 5601 5598 5595 5592 5589 5586 5583 5580 5579
5616 5623 5639 5644 5646 5649 5649 5648 5650 5649 5650 5648 5645 5644 5642 5640 5639 5638 5636 5634 5631 5628 5625 5623 5622 5620 5617 5616 5615 5613 5611 5609 5607 5604 5601 5598 5595 5592 5590 5587 5584 5581 5578 5576
5618 5630 5638 5642 5645 5647 5649 5648 5649 5649 5648 5646 5643 5641 5638 5636 5635 5634 5633 5631 5628 5626 5623 5621 5620 5619 5617 5616 5614 5612 5609 5607 5604 5601 5599 5596 5593 5591 5587 5585 5582 5580 5578 5576
5616 5627 5634 5641 5643 5644 5646 5647 5647 5647 5646 5644 5641 5638 5636 5634 5632 5631 5630 5628 5627 5624 5622 5621 5619 5617 5616 5614 5612 5609 5607 5605 5602 5599 5596 5593 5591 5589 5586 5585 5582 5579 5577 5575
5616 5627 5626 5633 5641 5642 5642 5643 5644 5643 5642 5641 5639 5636 5635 5632 5631 5629 5628 5626 5624 5623 5621 5620 5618 5617 5616 5614 5611 5608 5605 5603 5600 5597 5594 5592 5589 5588 5587 5584 5583 5580 5577 5574
5625 5630 5631 5636 5639 5642 5642 5643 5643 5642 5640 5638 5637 5635 5633 5631 5629 5627 5626 5625 5624 5622 5621 5619 5618 5616 5615 5613 5611 5608 5604 5602 5599 5596 5594 5591 5589 5586 5585 5585 5584 5581 5578 5575
5628 5629 5630 5636 5638 5642 5642 5643 5642 5641 5639 5637 5636 5634 5632 5630 5628 5627 5626 5625 5624 5622 5621 5619 5617 5616 5615 5613 5610 5608 5605 5602 5599 5596 5593 5590 5588 5586 5584 5582 5580 5579 5578 5574
5631 5633 5634 5637 5639 5641 5642 5641 5639 5637 5636 5635 5634 5633 5632 5629 5627 5626 5626 5625 5623 5621 5620 5619 5617 5616 5615 5613 5610 5607 5605 5602 5598 5596 5593 5590 5588 5586 5584 5581 5578 5576 5575 5574
5632 5635 5636 5637 5638 5639 5640 5639 5638 5637 5636 5635 5633 5632 5631 5630 5628 5627 5626 5624 5622 5620 5619 5618 5617 5616 5615 5613 5610 5607 5604 5602 5599 5596 5593 5590 5588 5586 5584 5581 5579 5576 5574 5572
5628 5630 5633 5635 5637 5638 5640 5640 5640 5639 5637 5635 5633 5632 5631 5629 5627 5626 5625 5624 5623 5622 5620 5619 5618 5617 5615 5613 5610 5607 5605 5602 5599 5596 5593 5590 5588 5586 5583 5581 5578 5575 5573 5570
5634 5636 5638 5639 5640 5639 5640 5641 5641 5639 5638 5637 5635 5633 5631 5629 5627 5626 5626 5625 5623 5622 5622 5621 5619 5618 5616 5614 5610 5608 5605 5602 5599 5595 5593 5590 5588 5586 5583 5580 5577 5575 5572 5569
5636 5638 5640 5642 5643 5643 5642 5642 5641 5640 5639 5638 5635 5633 5632 5631 5629 5628 5627 5625 5623 5622 5623 5622 5620 5618 5616 5614 5611 5608 5605 5602 5598 5595 5592 5590 5588 5586 5583 5580 5577 5573 5570 5566
5637 5640 5642 5644 5646 5645 5643 5643 5642 5641 5640 5638 5636 5634 5633 5632 5631 5630 5628 5626 5625 5625 5625 5623 5621 5618 5617 5614 5611 5608 5605 5602 5598 5596 5593 5590 5587 5584 5581 5578 5575 5571 5566 5562
5636 5640 5642 5644 5646 5646 5646 5645 5643 5642 5641 5640 5638 5637 5635 5634 5634 5632 5629 5627 5628 5627 5625 5624 5621 5619 5617 5614 5611 5608 5604 5601 5598 5595 5592 5589 5586 5583 5579 5575 5571 5567 5563 5558
5635 5639 5642 5644 5645 5645 5646 5646 5645 5644 5643 5642 5641 5640 5637 5636 5634 5633 5632 5631 5631 5629 5626 5624 5622 5620 5617 5614 5610 5607 5604 5601 5597 5594 5591 5587 5584 5580 5576 5572 5568 5564 5559 5554
5635 5639 5642 5644 5645 5646 5646 5646 5646 5646 5645 5644 5643 5642 5640 5638 5636 5634 5633 5634 5633 5631 5628 5625 5623 5619 5616 5613 5610 5606 5603 5600 5596 5593 5589 5586 5582 5577 5573 5569 5564 5560 5554 5549
5635 5639 5642 5644 5646 5646 5646 5647 5648 5648 5647 5647 5646 5645 5642 5640 5638 5638 5637 5636 5634 5631 5628 5625 5622 5619 5615 5612 5609 5606 5602 5599 5595 5592 5588 5584 5580 5575 5570 5566 5561 5556 5550 5544
5635 5638 5642 5644 5645 5647 5648 5648 5648 5647 5647 5646 5646 5646 5645 5644 5642 5640 5638 5636 5634 5631 5628 5625 5622 5619 5616 5612 5609 5605 5602 5599 5595 5591 5586 5582 5578 5573 5568 5562 5557 5551 5545 5539
5634 5638 5642 5646 5648 5648 5649 5649 5648 5647 5647 5646 5646 5646 5645 5644 5643 5641 5639 5637 5634 5631 5628 5625 5622 5619 5616 5612 5609 5605 5602 5598 5594 5589 5585 5580 5575 5570 5564 5559 5552 5546 5540 5533
5634 5638 5641 5644 5647 5649 5650 5650 5649 5648 5648 5648 5647 5646 5646 5645 5643 5641 5639 5637 5634 5631 5628 5624 5621 5618 5615 5611 5607 5604 5600 5596 5591 5587 5582 5577 5572 5567 5561 5554 5548 5541 5535 5529